Stündliche Wetter Celinki

Heute, 28 Januar, Donnerstag

Zeit Temperatur Niederschläge Wind Luftdruck Luftfeuchtigkeit
00:00 -2°C° 0 mm 3 m/S 751 mmHg 89%
01:00 -4°C° 0 mm 3 m/S 751 mmHg 89%
02:00 -3°C° 0 mm 4 m/S 750 mmHg 89%
03:00 -3°C° 0 mm 4 m/S 750 mmHg 89%
04:00 -4°C° 0 mm 5 m/S 749 mmHg 89%
05:00 -2°C° 0.2 mm 5 m/S 749 mmHg 91%
06:00 -2°C° 0.2 mm 5 m/S 748 mmHg 94%
07:00 -2°C° 0.2 mm 5 m/S 747 mmHg 96%
08:00 -1°C° 0.4 mm 5 m/S 747 mmHg 96%
09:00 0°C° 0.4 mm 5 m/S 747 mmHg 97%
10:00 0°C° 0.4 mm 4 m/S 746 mmHg 97%
11:00 0°C° 0.1 mm 4 m/S 746 mmHg 95%
12:00 0°C° 0.1 mm 4 m/S 746 mmHg 94%
13:00 +1°C° 0.1 mm 3 m/S 745 mmHg 92%
14:00 +1°C° 0.1 mm 3 m/S 745 mmHg 91%
15:00 +1°C° 0.1 mm 2 m/S 745 mmHg 89%
16:00 +1°C° 0.1 mm 2 m/S 744 mmHg 88%
17:00 -1°C° 0 mm 2 m/S 744 mmHg 88%
18:00 -1°C° 0 mm 2 m/S 744 mmHg 87%
19:00 -2°C° 0 mm 2 m/S 744 mmHg 87%
20:00 -2°C° 0 mm 2 m/S 745 mmHg 87%
21:00 -2°C° 0 mm 2 m/S 745 mmHg 86%
22:00 -3°C° 0 mm 2 m/S 745 mmHg 86%
23:00 -4°C° 0 mm 3 m/S 745 mmHg 86%

Morgen, 29 Januar, Freitag

Zeit Temperatur Niederschläge Wind Luftdruck Luftfeuchtigkeit
00:00 -4°C° 0 mm 3 m/S 745 mmHg 86%
01:00 -4°C° 0 mm 4 m/S 746 mmHg 86%
02:00 -4°C° 0 mm 4 m/S 745 mmHg 85%
03:00 -4°C° 0 mm 4 m/S 745 mmHg 84%
04:00 -4°C° 0 mm 4 m/S 745 mmHg 84%
05:00 -4°C° 0 mm 4 m/S 745 mmHg 84%
06:00 -5°C° 0 mm 3 m/S 745 mmHg 85%
07:00 -5°C° 0 mm 3 m/S 745 mmHg 86%
08:00 -4°C° 0 mm 3 m/S 744 mmHg 83%
09:00 -3°C° 0 mm 2 m/S 744 mmHg 80%
10:00 -2°C° 0 mm 2 m/S 744 mmHg 77%
11:00 -2°C° 0 mm 2 m/S 743 mmHg 71%
12:00 +1°C° 0 mm 1 m/S 743 mmHg 66%
13:00 +1°C° 0 mm 1 m/S 742 mmHg 60%
14:00 +1°C° 0.1 mm 1 m/S 741 mmHg 65%
15:00 -1°C° 0.1 mm 2 m/S 741 mmHg 70%
16:00 -2°C° 0.1 mm 2 m/S 740 mmHg 75%
17:00 -2°C° 0.4 mm 2 m/S 740 mmHg 81%
18:00 -2°C° 0.4 mm 2 m/S 740 mmHg 86%
19:00 -3°C° 0.4 mm 2 m/S 740 mmHg 92%
20:00 -3°C° 0.1 mm 2 m/S 740 mmHg 92%
21:00 -1°C° 0.1 mm 1 m/S 741 mmHg 93%
22:00 -1°C° 0.1 mm 1 m/S 741 mmHg 93%
23:00 -1°C° 0 mm 1 m/S 741 mmHg 93%

übermorgen, 30 Januar, Samstag

Zeit Temperatur Niederschläge Wind Luftdruck Luftfeuchtigkeit
00:00 -1°C° 0 mm 1 m/S 741 mmHg 94%
01:00 -2°C° 0 mm 1 m/S 741 mmHg 94%
02:00 -4°C° 0.2 mm 2 m/S 740 mmHg 94%
03:00 -3°C° 0.2 mm 2 m/S 739 mmHg 95%
04:00 -4°C° 0.2 mm 3 m/S 738 mmHg 95%
05:00 -4°C° 1.6 mm 3 m/S 738 mmHg 95%
06:00 -4°C° 1.6 mm 4 m/S 738 mmHg 96%
07:00 -5°C° 1.6 mm 5 m/S 738 mmHg 96%
08:00 -5°C° 0.7 mm 5 m/S 739 mmHg 96%
09:00 -5°C° 0.7 mm 5 m/S 740 mmHg 95%
10:00 -4°C° 0.7 mm 5 m/S 741 mmHg 95%
11:00 -4°C° 0.1 mm 5 m/S 742 mmHg 93%
12:00 -3°C° 0.1 mm 4 m/S 743 mmHg 90%
13:00 -2°C° 0.1 mm 4 m/S 743 mmHg 88%
14:00 -3°C° 0 mm 4 m/S 744 mmHg 89%
15:00 -2°C° 0 mm 3 m/S 744 mmHg 90%
16:00 -4°C° 0 mm 3 m/S 744 mmHg 90%
17:00 -4°C° 0 mm 2 m/S 745 mmHg 90%
18:00 -5°C° 0 mm 2 m/S 745 mmHg 90%
19:00 -6°C° 0 mm 2 m/S 746 mmHg 90%
20:00 -6°C° 0 mm 2 m/S 746 mmHg 90%
21:00 -6°C° 0 mm 2 m/S 746 mmHg 91%
22:00 -7°C° 0 mm 2 m/S 746 mmHg 91%
23:00 -7°C° 0 mm 2 m/S 746 mmHg 91%

31 Januar, Sonntag

Zeit Temperatur Niederschläge Wind Luftdruck Luftfeuchtigkeit
00:00 -7°C° 0 mm 2 m/S 746 mmHg 91%
01:00 -7°C° 0 mm 2 m/S 746 mmHg 91%
02:00 -6°C° 0 mm 1 m/S 746 mmHg 91%
03:00 -7°C° 0 mm 1 m/S 746 mmHg 92%
04:00 -7°C° 0 mm 1 m/S 746 mmHg 92%
05:00 -7°C° 0 mm 1 m/S 746 mmHg 91%
06:00 -8°C° 0 mm 2 m/S 746 mmHg 90%
07:00 -8°C° 0 mm 2 m/S 747 mmHg 89%
08:00 -7°C° 0 mm 2 m/S 747 mmHg 89%
09:00 -7°C° 0 mm 2 m/S 746 mmHg 89%
10:00 -4°C° 0 mm 1 m/S 746 mmHg 88%
11:00 -5°C° 0 mm 2 m/S 746 mmHg 88%
12:00 -4°C° 0 mm 2 m/S 746 mmHg 87%
13:00 -4°C° 0 mm 2 m/S 746 mmHg 87%
14:00 -4°C° 0 mm 2 m/S 745 mmHg 88%
15:00 -4°C° 0 mm 2 m/S 745 mmHg 89%
16:00 -6°C° 0 mm 3 m/S 744 mmHg 90%
17:00 -6°C° 0 mm 3 m/S 744 mmHg 90%
18:00 -7°C° 0 mm 3 m/S 744 mmHg 90%
19:00 -7°C° 0 mm 3 m/S 743 mmHg 90%
20:00 -7°C° 0 mm 3 m/S 743 mmHg 90%
21:00 -7°C° 0 mm 3 m/S 743 mmHg 89%
22:00 -7°C° 0 mm 3 m/S 742 mmHg 89%
23:00 -7°C° 0 mm 3 m/S 742 mmHg 89%

1 Februar, Montag

Zeit Temperatur Niederschläge Wind Luftdruck Luftfeuchtigkeit
00:00 -7°C° 0 mm 3 m/S 742 mmHg 89%
01:00 -7°C° 0 mm 3 m/S 741 mmHg 89%
02:00 -7°C° 0 mm 3 m/S 741 mmHg 89%
03:00 -7°C° 0 mm 3 m/S 741 mmHg 88%
04:00 -6°C° 0 mm 2 m/S 740 mmHg 88%
05:00 -6°C° 0 mm 2 m/S 741 mmHg 88%
06:00 -6°C° 0 mm 2 m/S 741 mmHg 87%
07:00 -7°C° 0 mm 2 m/S 741 mmHg 87%
08:00 -6°C° 0 mm 2 m/S 742 mmHg 86%
09:00 -3°C° 0 mm 1 m/S 742 mmHg 86%
10:00 -3°C° 0 mm 1 m/S 742 mmHg 85%
11:00 -2°C° 0 mm 1 m/S 743 mmHg 84%
12:00 -2°C° 0 mm 1 m/S 743 mmHg 82%
13:00 -1°C° 0 mm 1 m/S 743 mmHg 81%
14:00 -1°C° 0 mm 1 m/S 744 mmHg 83%
15:00 -2°C° 0 mm 1 m/S 744 mmHg 86%
16:00 -4°C° 0 mm 2 m/S 745 mmHg 88%
17:00 -5°C° 0 mm 2 m/S 746 mmHg 89%
18:00 -5°C° 0 mm 2 m/S 746 mmHg 89%
19:00 -6°C° 0 mm 2 m/S 747 mmHg 90%
20:00 -6°C° 0 mm 2 m/S 748 mmHg 90%
21:00 -6°C° 0 mm 2 m/S 749 mmHg 90%
22:00 -6°C° 0 mm 2 m/S 749 mmHg 90%
23:00 -6°C° 0 mm 2 m/S 750 mmHg 90%

2 Februar, Dienstag

Zeit Temperatur Niederschläge Wind Luftdruck Luftfeuchtigkeit
00:00 -6°C° 0 mm 2 m/S 750 mmHg 90%
01:00 -6°C° 0 mm 2 m/S 751 mmHg 91%
02:00 -6°C° 0 mm 2 m/S 751 mmHg 91%
03:00 -6°C° 0 mm 2 m/S 751 mmHg 91%
04:00 -7°C° 0 mm 2 m/S 752 mmHg 92%
05:00 -7°C° 0 mm 2 m/S 752 mmHg 91%
06:00 -7°C° 0 mm 2 m/S 752 mmHg 91%
07:00 -7°C° 0 mm 2 m/S 752 mmHg 91%
08:00 -7°C° 0 mm 2 m/S 752 mmHg 89%
09:00 -7°C° 0 mm 3 m/S 752 mmHg 88%
10:00 -6°C° 0 mm 3 m/S 752 mmHg 87%
11:00 -5°C° 0 mm 4 m/S 751 mmHg 86%
12:00 -5°C° 0 mm 5 m/S 750 mmHg 85%
13:00 -4°C° 0 mm 5 m/S 749 mmHg 85%
14:00 -4°C° 0.1 mm 6 m/S 748 mmHg 88%
15:00 -3°C° 0.1 mm 6 m/S 747 mmHg 92%
16:00 -3°C° 0.1 mm 7 m/S 745 mmHg 95%
17:00 -2°C° 1.4 mm 7 m/S 744 mmHg 96%
18:00 -2°C° 1.4 mm 7 m/S 743 mmHg 97%
19:00 -1°C° 1.4 mm 7 m/S 742 mmHg 98%
20:00 0°C° 0.5 mm 7 m/S 742 mmHg 98%
21:00 +1°C° 0.5 mm 6 m/S 742 mmHg 98%
22:00 +2°C° 0.5 mm 6 m/S 742 mmHg 99%
23:00 +2°C° 0 mm 6 m/S 742 mmHg 97%
Mehr zeigen

Wir brauchen deine Erlaubnis

Meteoprog und unser Service Anbieter werden persönliche Daten aufbewahren, so wie Cookies, Geräte Bezeichnung oder ähnliche Technologien von deinem Gerät und Prozess, so wie Persönliche Daten Inhalte und Werbungen, genauso wie social Media und den Verkehr zu analysieren.

  • Aufbewahrung und/oder Zugang zu deiner Geräte Informationen.

    Cookies, Geräte Bezeichnung oder andere Informationen, können aufbewahrt oder Zugang zu deinem Gerät erhalten, für den Grund, der oben angegeben wird.

  • Personalisierte Werbung und Inhalte, Messungen, Einblick in das Publikum und Produkt Entwicklung.

    Werbungen und Inhalte können personalisiert werden, basierend auf ein Profil. Mehr Daten können besser personalisierte Werbungen und Inhalte hinzufügen. Werbung und Inhalte können gezeigt und gemessen werden. Einblicke über das Publikum, welche die Werbung gesehen haben und den Inhalt, können abgeleitet werden. So wie Daten können genutzt werden, um es zu verbessern oder die Benutzer Erfahrung zu verbessern das System und die Software.

Wenn du “Ich stimme zu” klickst, erlaubst du uns, die Cookies zu benutzen die Geräte Bezeichnung, den Web oder ähnliche Technologien zu benutzen. Deine Settings, können in deinem Gerät bei deinem Browser geändert werden.

Für den bestimmten Zweck, berechtigten Interessen beruhen darauf, mehr als auf den Inhalt. Du kannst mehr darüber in unseren Privaten und Cookie Politik lesen.